FW5883 Weather Reports


time (UTC)temp
F
wind
direction
speed
knots
gust
knots
rain 1hr
in
rain 24hr
in
rain mn
in
humidity
%
barometer
mb
20260504234543 82 282 0.0 2.6 0.00 0.00 0.00 23 910.8
20260504233044 81 283 1.7 6.1 0.00 0.00 0.00 24 910.7
20260504231542 81 290 0.9 3.5 0.00 0.00 0.00 23 910.7
20260504230040 82 290 1.7 6.1 0.00 0.00 0.00 23 910.8
20260504224539 81 220 0.9 3.5 0.00 0.00 0.00 23 911.0
20260504223038 82 219 1.7 4.3 0.00 0.00 0.00 23 911.1
20260504221537 82 190 5.2 12.2 0.00 0.00 0.00 21 911.2
20260504220035 82 177 8.7 12.2 0.00 0.00 0.00 21 911.3
20260504214539 82 214 3.5 10.4 0.00 0.00 0.00 21 911.5
20260504213038 82 174 3.5 13.0 0.00 0.00 0.00 22 911.5
20260504211532 82 129 3.5 9.6 0.00 0.00 0.00 21 911.7
20260504210031 83 116 4.3 11.3 0.00 0.00 0.00 22 911.7
20260504204530 83 145 3.5 8.7 0.00 0.00 0.00 23 911.8
20260504203032 83 123 1.7 7.8 0.00 0.00 0.00 22 911.9
20260504201528 83 74 3.5 8.7 0.00 0.00 0.00 22 911.9
20260504200037 83 82 6.1 13.0 0.00 0.00 0.00 22 912.1
20260504194524 82 58 3.5 10.4 0.00 0.00 0.00 20 912.3
20260504193022 83 79 3.5 9.6 0.00 0.00 0.00 23 912.6
20260504191530 82 355 1.7 8.7 0.00 0.00 0.00 22 912.7
20260504190016 81 73 3.5 9.6 0.00 0.00 0.00 23 912.9
20260504184516 82 5 2.6 10.4 0.00 0.00 0.00 24 913.0
20260504183033 81 69 5.2 11.3 0.00 0.00 0.00 25 913.2
20260504181522 82 5 0.9 9.6 0.00 0.00 0.00 28 913.3
20260504180014 81 61 2.6 7.8 0.00 0.00 0.00 25 913.4
20260504174515 80 5 1.7 7.8 0.00 0.00 0.00 27 913.7
20260504173007 80 51 1.7 7.0 0.00 0.00 0.00 29 913.6
20260504171502 78 360 2.6 7.0 0.00 0.00 0.00 31 913.7
20260504170109 77 355 4.3 10.4 0.00 0.00 0.00 32 913.8
20260504100103 46 285 1.7 6.1 0.00 0.00 0.00 72 913.5
20260504081541 51 294 3.5 6.1 0.00 0.00 0.00 63 913.8
20260504050002 62 80 7.0 13.0 0.00 0.00 0.00 46 914.9
20260504044504 62 70 7.8 12.2 0.00 0.00 0.00 45 915.1
20260504043102 63 60 7.0 13.9 0.00 0.00 0.00 45 915.1
20260504041601 63 75 9.6 14.8 0.00 0.00 0.00 44 915.3
20260504040105 63 78 8.7 12.2 0.00 0.00 0.00 45 915.4
20260504034610 63 74 3.5 9.6 0.00 0.00 0.00 45 915.6
20260504033127 63 53 5.2 8.7 0.00 0.00 0.00 44 915.7
20260504031603 64 56 4.3 10.4 0.00 0.00 0.00 44 915.7
20260504030101 64 53 6.1 10.4 0.00 0.00 0.00 43 915.8
20260504024556 65 50 5.2 8.7 0.00 0.00 0.00 41 915.8
20260504023103 67 65 8.7 13.0 0.00 0.00 0.00 39 915.8
20260504021556 68 51 2.6 9.6 0.00 0.00 0.00 39 915.7
20260504020155 70 49 4.3 8.7 0.00 0.00 0.00 38 915.6
20260504014554 72 74 3.5 9.6 0.00 0.00 0.00 35 915.6
20260504013106 73 48 4.3 9.6 0.00 0.00 0.00 33 915.5
20260504011553 74 34 2.6 7.8 0.00 0.00 0.00 32 915.3
20260504010104 75 28 1.7 7.8 0.00 0.00 0.00 32 915.3
20260504004607 77 15 1.7 7.0 0.00 0.00 0.00 28 915.1
20260504003051 79 19 1.7 5.2 0.00 0.00 0.00 24 914.8
20260504001554 80 15 2.6 7.8 0.00 0.00 0.00 22 914.8
20260504000049 81 24 4.3 11.3 0.00 0.00 0.00 19 914.8